Regional Weather Roundup
Issued by NWS

Home | Current Version | Previous Version | Graphics & Text | Print | Product List | Glossary On
Versions: 1 2 3 4 5 6 7 8 9 10 11 12 13 14 15 16 17 18 19 20 21 22 23 24 25 26 27 28 29 30 31 32 33 34 35 36 37 38 39 40 41 42 43 44 45 46 47 48 49 50
343
ASUS45 KTFX 230010
RWRMT
MONTANA REGIONAL WEATHER ROUNDUP
NATIONAL WEATHER SERVICE GREAT FALLS MT
500 PM MST SUN JAN 22 2017

NOTE: "FAIR" INDICATES FEW OR NO CLOUDS BELOW 12000 FEET WITH NO
SIGNIFICANT WEATHER AND/OR OBSTRUCTIONS TO VISIBILITY.

MTZ001>007-043-230100-
WEST OF THE DIVIDE

CITY           SKY/WX    TMP DP  RH WIND       PRES   REMARKS
KALISPELL      PTCLDY    31  24  75 NW3       29.62S
MISSOULA       CLOUDY    30  28  92 S18       29.66S WCI  18
BUTTE          CLOUDY    29  20  69 CALM      29.64F
MULLAN PASS    CLOUDY    24  21  88 SE9       29.51F WCI  14
ANACONDA         N/A     30  21  69 SE9       29.65R WCI  22
DEER LODGE       N/A     34  21  60 S17G23    29.66S WCI  23
EUREKA           N/A     28  25  86 E6        29.67S WCI  22
HAMILTON         N/A     28  27  93 NE3       29.64
RONAN            N/A     26  24  92 CALM      29.70F VSB 0
$$

MTZ008-052>055-230100-
SOUTHWEST MONTANA

CITY           SKY/WX    TMP DP  RH WIND       PRES   REMARKS
BOZEMAN        CLOUDY    25  18  74 CALM      29.69S
DILLON         CLOUDY   N/A N/A N/A N5        29.64F
W YELLOWSTONE  MIX PCPN  27  19  74 SE5       29.72F
ENNIS          CLOUDY    32  21  64 S23G31    29.70F WCI  19
TWIN BRIDGES     N/A     30  21  69 S7        29.69F WCI  23
$$

MTZ009-010-012-014-046-048-049-054-230100-
EAST SLOPES AND CENTRAL MONTANA

CITY           SKY/WX    TMP DP  RH WIND       PRES   REMARKS
CUT BANK       CLOUDY    23  22  96 NE10      29.73S FOG     WCI  12
GREAT FALLS    FOG       25  23  92 NE13      29.71R VSB 1/2 WCI  14
MALMSTROM AFB  MOCLDY    25  25 100 NE13      29.73R FOG     WCI  13
HELENA         CLOUDY    22  15  75 CALM      29.68F
CHOTEAU        FOG       25  25 100 NE6       29.74R VSB 0   WCI  18
$$

MTZ011-013-016-021-045-047-050-051-230100-
NORTH CENTRAL MONTANA

CITY           SKY/WX    TMP DP  RH WIND       PRES   REMARKS
HAVRE          CLOUDY    29  26  89 CALM      29.80S
LEWISTOWN      CLEAR     31  23  72 SE12      29.70F WCI  22
CHINOOK          N/A     30  27  86 CALM      29.81S
FORT BENTON      N/A     27  25  93 MISG      29.77S
$$

MTZ017>020-022>027-061-062-230100-
NORTHEAST MONTANA

CITY           SKY/WX    TMP DP  RH WIND       PRES   REMARKS
GLASGOW        CLOUDY    30  25  81 W9        29.81S WCI  22
JORDAN           N/A     29  25  85 NE6       29.81F WCI  23
SIDNEY         CLOUDY    30  24  78 W7        29.84S WCI  23
WOLF POINT     CLOUDY    31  25  78 W7        29.84R WCI  24
PLENTYWOOD       N/A    N/A N/A N/A NW6       29.79R
POPLAR           N/A     28  21  74 SW5       29.84R
$$

MTZ028>42-056>058-230100-
SOUTHCENTRAL AND SOUTHEAST MONTANA

CITY           SKY/WX    TMP DP  RH WIND       PRES   REMARKS
BAKER          CLOUDY    23  21  92 W10       29.84S WCI  12
BILLINGS       PTCLDY    32  21  64 W5        29.74F
LIVINGSTON     CLOUDY    38  17  42 SW16      29.69S WCI  29
MILES CITY     CLOUDY    24  21  88 S6        29.84F WCI  17
BIG TIMBER     CLEAR     34  16  47 SE9       29.73S WCI  26
FORSYTH          N/A     19  18  93 E5        29.82F
LAUREL           N/A     32  19  58 CALM      29.75F
$$

REGIONAL REPORTS...DAKOTAS

CITY           SKY/WX    TMP DP  RH WIND       PRES   REMARKS
WILLISTON      CLOUDY    30  24  78 W9        29.82R WCI  22
MINOT          CLOUDY    32  29  88 W6        29.78R WCI  26
DICKINSON      CLOUDY    26  23  88 W16       29.79S WCI  14
BEACH          CLOUDY    27  27 100 W15       29.85S WCI  15
CROSBY         CLOUDY    28  28 100 W15       29.81R WCI  17
TIOGA          CLOUDY    27  27 100 W13       29.80R WCI  16
WATFORD CITY   CLOUDY    28  25  86 W12       29.82S WCI  18
BISMARCK       CLOUDY    33  28  81 W12       29.84R WCI  24
GRAND FORKS    CLOUDY    33  29  85 SW3       29.76R
FARGO          CLOUDY    34  31  88 NW8       29.78R FOG     WCI  27
BUFFALO SD       N/A     24  20  84 NW7       29.76S WCI  16
RAPID CITY     CLEAR     35  24  64 CALM      29.83S
$$

REGIONAL REPORTS...WYOMING/IDAHO/WASHINGTON

CITY           SKY/WX    TMP DP  RH WIND       PRES   REMARKS
GILLETTE       CLEAR     31  23  72 S3        29.79S
SHERIDAN       CLEAR     33  22  63 SE12      29.76F WCI  24
BUFFALO WY     CLEAR     30  20  66 NW7       29.75F WCI  23
CODY           CLOUDY    29  19  66 SE10      29.74F WCI  20
YELLOWSTONE LA   N/A     21  16  81 CALM      29.73F
IDAHO FALLS    LGT SNOW  29  28  96 S12       29.75F VSB 1   WCI  19
SALMON         CLOUDY    19  16  86 CALM      29.67S
BOISE          CLOUDY    37  30  75 SE17      29.64R WCI  27
SPOKANE        LGT SNOW  35  32  88 SE6       29.57S FOG     WCI  30
$$

REGIONAL REPORTS...ALBERTA

CITY           SKY/WX    TMP DP  RH WIND       PRES   REMARKS
EDMONTON       CLOUDY    16  10  79 NE3       29.90S
CALGARY        FOG       21  19  93 E6        29.78S VSB 3/4 WCI  14
LETHBRIDGE     CLOUDY    25  25 100 NE6       29.79S FOG     WCI  18
MEDICINE HAT   LGT SNOW  23  21  93 N6        29.84R FOG     WCI  16
WATERTON GATE    N/A     23  23 100 E7          N/A  WCI  15
CARDSTON         N/A     23  23 100 NE5         N/A
MILK RIVER       N/A     25  25 100 NE9         N/A  WCI  15
ONEFOUR          N/A     27  27 100 NW6         N/A  WCI  20
$$

REGIONAL REPORTS...SASKATCHEWAN

CITY           SKY/WX    TMP DP  RH WIND       PRES   REMARKS
SWIFT CURRENT  CLOUDY    21  19  93 NW12      29.77R FOG     WCI   9
REGINA         FLURRIES  25  21  86 NW14      29.78R WCI  13
SASKATOON      MOCLDY    18  14  86 N7        29.83S WCI   8
CYPRESS HILLS    N/A     21  19  93 NW3         N/A
VAL MARIE        N/A     28  25  86 NE6         N/A  WCI  22
ROCKGLEN         N/A     25  23  93 W7          N/A  WCI  17
$$




USA.gov is the U.S. government's official web portal to all federal, state and local government web resources and services.